Погода в Кромержиже

Чехия     49°17′37″N   17°23′26″E
темп.,
°C
ветер,
м/с
пор.,
м/с
влажн.,
%
обл.,
%
осадки,
мм/ч
давл.,
гПа
погр.,
м
15 апреля, чт
чт1523:00+1ссз3698100 0.2 1024358
02:00+1сз3697100 0.5 1023419
05:000сз2294100 0.0 102360
08:00+2ссз2482100 0.1 1023327
11:00+3ссз4575100 0.2 1022959
14:00+4сз5775100 0.4 1022961
17:00+4сз6773100 0.2 1021994
20:00+2сз5980100 0.3 1021537
16 апреля, пт
пт1623:00+1сз3988100 0.0 1021503
02:00+1сз269097 0.0 1021369
05:00+1з2395100 0.1 1021252
08:00+1сз2487100 0.1 1021534
11:00+4сз2372100 0.0 1021832
14:00+6ссз3376100 0.1 1021833
17:00+5сз3483100 0.1 1021664
20:00+3ссз2494100 0.1 1022504
17 апреля, сб
сб1723:00+3с1293100 0.1 1022159
02:00+3сз129281 0.1 1021156
05:00+1сз119395 0.0 102151
08:00+3с128796 0.0 1021237
11:00+4с1294100 0.0 1021349
14:00+8с337051 0.1 1019910
17:00+7св347097 0.1 1019766
20:00+4ссв348951 0.1 102099
18 апреля, вс
вс1823:00+2ссв249557 0.0 1020150
02:00+3ссв2591100 0.0 1019452
05:00+3с3697100 0.0 1019380
08:00+4ссв3790100 0.0 1019540
11:00+7ссв5675100 0.0 1018894
14:00+8ссв5667100 0.1 10181186
17:00+8ссв5770100 0.1 10171005
20:00+6с5980100 0.1 1018396
19 апреля, пн
пн1923:00+5с4987100 0.0 1018357
02:00+5ссв41185100 0.0 1017517
05:00+5ссв51091100 1.1 1017809
08:00+5ссв51090100 1.5 1016826
11:00+6с5992100 0.4 1016894
14:00+7ссв4790100 0.6 1015802
17:00+8ссв5785100 0.1 1014658
20:00+6ссв4894100 0.1 1014373